Flag for U.S.A. Weather past 2 weeks in Newport News, Virginia, U.S.A.

Now
75 °F

Sunny.


Feels Like: 77 °F
Forecast: 68 / 88 °F
Wind: 12 mph from Southwest

Location: Newport News / Williamsburg International Airport

Current Time: May 26, 2015 at 8:34:57 AM

Latest Report: May 26, 2015 at 7:54 AM


Visibility: 10 mi

Pressure: 30.31 "Hg

Humidity: 66%

Dew point: 63 °F

Location of Newport NewsLocation

Historic Weather in Newport News — Graph

°F

Newport News temperature yesterday

Maximum temperature yesterday: 87 °F (at 2:54 PM)
Minimum temperature yesterday: 69 °F (at 4:54 AM)
Average temperature yesterday: 78 °F

Past Weeks' High & Low Weather Summary

 TemperatureHumidityPressure
High92 °F (May 12, 2:54 PM)85% (May 17, 8:54 PM)30.46 "Hg (May 17, 8:54 PM)
Low52 °F (May 15, 2:54 AM)32% (May 22, 4:54 PM)29.82 "Hg (May 21, 3:54 PM)
Average73 °F61%30.15 "Hg
* Reported May 11 6:01 AM — May 26 6:54 AM, Newport News, Weather by CustomWeather, © 2015

Note: Actual official high and low records may vary slightly from our data, if they occured in-between our weather recording intervals... More about our weather records

Advertising

Newport News weather history for previous 24 hours

 ConditionsComfort  
Time TempWeatherWind HumidityBarometerVisibility
6:54 AM
Tue, May 26
72 °FSunny.8 mph71%30.30 "Hg10 mi
5:54 AM71 °FClear.10 mph71%30.29 "Hg10 mi
4:54 AM71 °FClear.14 mph71%30.27 "Hg10 mi
3:54 AM71 °FClear.14 mph71%30.27 "Hg10 mi
2:54 AM71 °FClear.10 mph71%30.26 "Hg10 mi
1:54 AM72 °FClear.10 mph68%30.25 "Hg10 mi
12:54 AM73 °FClear.15 mph64%30.27 "Hg10 mi
11:54 PM
Mon, May 25
74 °FClear.14 mph60%30.28 "Hg10 mi
10:54 PM75 °FClear.10 mph55%30.28 "Hg10 mi
9:54 PM78 °FClear.10 mph45%30.27 "Hg10 mi
8:54 PM79 °FSunny.10 mph42%30.25 "Hg10 mi
7:54 PM82 °FSunny.12 mph43%30.24 "Hg10 mi
6:54 PM84 °FSunny.9 mph41%30.24 "Hg10 mi
5:54 PM86 °FSunny.12 mph35%30.25 "Hg10 mi
4:54 PM87 °FSunny.13 mph33%30.26 "Hg10 mi
3:54 PM87 °FSunny.14 mph35%30.26 "Hg10 mi
2:54 PM87 °FSunny.16 mph37%30.27 "Hg10 mi
1:54 PM85 °FSunny.16 mph42%30.30 "Hg10 mi
12:54 PM85 °FPassing clouds.15 mph45%30.32 "Hg10 mi
11:54 AM83 °FSunny.13 mph46%30.33 "Hg10 mi
10:54 AM81 °FSunny.12 mph49%30.34 "Hg10 mi
9:54 AM79 °FSunny.10 mph52%30.35 "Hg10 mi
8:54 AM75 °FSunny.10 mph60%30.34 "Hg10 mi
Weather by CustomWeather, © 2015

See weather overviewHow to use our weather pages